Phnom Penh, Cambodia

4:43 AM ICT on February 07, 2016 (GMT +0700)
Pochentong International

Weather History for VDPP - February, 2014

Change the Weather History Date:

Thursday, February 6, 2014

  Actual Average Record
Temperature  
Mean Temperature 80 °F -  
Max Temperature 87 °F 88 °F - ()
Min Temperature 72 °F 74 °F - ()
Cooling Degree Days 14    
Growing Degree Days 30 (Base 50)    
Moisture  
Dew Point 66 °F    
Average Humidity 61    
Maximum Humidity 83    
Minimum Humidity 46    
Precipitation  
Precipitation 0.00 in - - ()
Sea Level Pressure  
Sea Level Pressure 29.75 in    
Wind  
Wind Speed 8 mph ()    
Max Wind Speed 15 mph    
Max Gust Speed -    
Visibility 6.0 miles    
Events      
T = Trace of Precipitation, MM = Missing Value Source: Averaged Metar Reports

Daily Weather History Graph

Daily Weather History Graph

Search for Another Location

Airport or City:

Trip Planner

Search our weather history database for the weather conditions in past years. The results will help you decide how hot, cold, wet, or windy it might be!

Date:

Astronomy

Feb. 06, 2014 Rise Set
Actual Time 6:24 AM ICT 6:05 PM ICT
Civil Twilight 6:02 AM ICT 6:27 PM ICT
Nautical Twilight 5:37 AM ICT 6:52 PM ICT
Astronomical Twilight 5:11 AM ICT 7:17 PM ICT
Moon 11:15 AM ICT No Moon Set
Length of Visible Light 12h 24m
Length of Day
11h 40m
Waxing Crescent, 44% of the Moon is Illuminated
Feb 6
Waxing Crescent
Feb 7
First Quarter
Feb 15
Full
Feb 23
Last Quarter
Mar 1
New

Hourly Weather History & Observations

Time (ICT) Temp. Heat Index Dew Point Humidity Pressure Visibility Wind Dir Wind Speed Gust Speed Precip Events Conditions
6:00 AM 73.4 °F - 68.0 °F 83% 29.77 in 6.2 mi South 6.9 mph - N/A   Scattered Clouds
6:30 AM 75.2 °F - 69.8 °F 83% 29.77 in 6.2 mi South 5.8 mph - N/A   Scattered Clouds
7:00 AM 75 °F - 70 °F 80% 29.83 in 6 mi South 4.5 mph - -   Mostly Cloudy
7:00 AM 75.2 °F - 69.8 °F 83% 29.80 in 5.0 mi South 8.1 mph - N/A   Scattered Clouds
7:30 AM 75.2 °F - 68.0 °F 78% 29.80 in 5.0 mi South 6.9 mph - N/A   Scattered Clouds
8:00 AM 77.0 °F - 68.0 °F 74% 29.80 in 5.6 mi South 8.1 mph - N/A   Scattered Clouds
8:30 AM 78.8 °F - 68.0 °F 69% 29.83 in 5.6 mi South 10.4 mph - N/A   Scattered Clouds
9:00 AM 78.8 °F - 68.0 °F 69% 29.83 in 5.6 mi South 11.5 mph - N/A   Scattered Clouds
9:30 AM 80.6 °F 82.7 °F 66.2 °F 61% 29.83 in 6.2 mi South 15.0 mph - N/A   Scattered Clouds
10:00 AM 82.4 °F 85.4 °F 68.0 °F 62% 29.83 in 6.2 mi SE 12.7 mph - N/A   Partly Cloudy
10:30 AM 84.2 °F 86.6 °F 66.2 °F 55% 29.83 in 6.2 mi SSE 13.8 mph - N/A   Partly Cloudy
11:00 AM 84.2 °F 86.6 °F 66.2 °F 55% 29.80 in 6.2 mi SSE 13.8 mph - N/A   Partly Cloudy
11:30 AM 84.2 °F 86.6 °F 66.2 °F 55% 29.80 in 6.2 mi SSE 11.5 mph - N/A   Partly Cloudy
12:00 PM 86.0 °F 88.2 °F 66.2 °F 51% 29.77 in 6.2 mi SE 11.5 mph - N/A   Partly Cloudy
12:30 PM 86.0 °F 87.3 °F 64.4 °F 48% 29.77 in 6.2 mi SSE 11.5 mph - N/A   Partly Cloudy
1:00 PM 86.0 °F 87.3 °F 64.4 °F 48% 29.74 in 6.2 mi South 11.5 mph - N/A   Scattered Clouds
1:30 PM 87.8 °F 89.4 °F 64.4 °F 46% 29.74 in 6.2 mi SSE 9.2 mph - N/A   Scattered Clouds
2:00 PM 87.8 °F 89.4 °F 64.4 °F 46% 29.71 in 6.2 mi South 11.5 mph - N/A   Scattered Clouds
2:30 PM 87.8 °F 89.4 °F 64.4 °F 46% 29.71 in 6.2 mi SSE 8.1 mph - N/A   Scattered Clouds
3:00 PM 87.8 °F 89.4 °F 64.4 °F 46% 29.68 in 6.2 mi SSE 11.5 mph - N/A   Scattered Clouds
3:30 PM 87.8 °F 89.4 °F 64.4 °F 46% 29.68 in 6.2 mi SSE 9.2 mph - N/A   Scattered Clouds
4:00 PM 87.8 °F 89.4 °F 64.4 °F 46% 29.68 in 6.2 mi South 6.9 mph - N/A   Scattered Clouds
4:30 PM 87.8 °F 89.4 °F 64.4 °F 46% 29.68 in 6.2 mi SSE 8.1 mph - N/A   Partly Cloudy
5:00 PM 86.0 °F 87.3 °F 64.4 °F 48% 29.68 in 6.2 mi SSE 9.2 mph - N/A   Partly Cloudy
5:30 PM 86.0 °F 88.2 °F 66.2 °F 51% 29.71 in 6.2 mi SSE 10.4 mph - N/A   Partly Cloudy
6:00 PM 84.2 °F 86.6 °F 66.2 °F 55% 29.71 in 6.2 mi SSE 9.2 mph - N/A   Partly Cloudy
6:30 PM 82.4 °F 84.6 °F 66.2 °F 58% 29.71 in 5.6 mi South 8.1 mph - N/A   Partly Cloudy
7:00 PM 80.6 °F 82.7 °F 66.2 °F 61% 29.71 in 5.6 mi South 8.1 mph - N/A   Partly Cloudy
7:30 PM 80.6 °F 82.7 °F 66.2 °F 61% 29.74 in 5.6 mi South 6.9 mph - N/A   Unknown
8:00 PM 80.6 °F 82.7 °F 66.2 °F 61% 29.74 in 5.6 mi SSW 5.8 mph - N/A   Unknown
8:30 PM 78.8 °F - 66.2 °F 65% 29.74 in 6.2 mi SSW 4.6 mph - N/A   Partly Cloudy
9:00 PM 78.8 °F - 66.2 °F 65% 29.74 in 6.2 mi SSW 4.6 mph - N/A   Partly Cloudy
9:30 PM 78.8 °F - 66.2 °F 65% 29.74 in 6.2 mi SW 4.6 mph - N/A   Partly Cloudy
10:00 PM 77.0 °F - 66.2 °F 69% 29.74 in 6.2 mi SSW 4.6 mph - N/A   Partly Cloudy
10:30 PM 77.0 °F - 66.2 °F 69% 29.74 in 6.2 mi SSW 3.5 mph - N/A   Partly Cloudy
11:00 PM 77.0 °F - 66.2 °F 69% 29.74 in 6.2 mi SSW 4.6 mph - N/A   Partly Cloudy
11:30 PM 77.0 °F - 66.2 °F 69% 29.74 in 6.2 mi SSW 5.8 mph - N/A   Partly Cloudy